2022-047AB (52419 NORAD) Tracking and Keplerian Element Data

This shows tracking and keplerian element data for the satellite.

Feedback or suggestion? Click here.




ElementValue
Catalog52419
Name2022-047AB
Epoch Orbit813
Epoch Day167.03183965
Epoch Year2022
RAAN251.9243
Inclination97.4493
Eccentricity0.0009957
Argument of Perigee175.8233
Mean Anonmoly184.3083
Mean Motion15.13106717
Decay Rate8.933E-05
L11 52419U 22047AB 22167.03183965 .00008933 00000+0 50735-3 0 9994
L22 52419 97.4493 251.9243 0009957 175.8233 184.3083 15.13106717 8135

Live tracking and technical data element details for 2022-047AB (NORAD 52419). 2022-047AB can be tracked NOW for your location showing map with azimuth and elevation plus other details from your city location.

Track the satellite on the map from your city or location and see movement details for azimuth, elevation, latitude, longitude, range, height, and movement on the map or in text.







IsCatalogInMostPopularTable: catalog: 52419, numindb: 1
Update: records affected: 1



GetName: 52419 2022-047AB

Hit Count: updated at: Sat, 25 Jun 2022 05:30:11 GMT